Tracking 32938 objects as of 13-Jan-2026
HD Live streaming from Space Station
objects crossing your sky now

SL-8 R/B

Track SL-8 R/B now!
10-day predictions


NORAD ID: 13066
Int'l Code: 1982-012B
Perigee: 947.4 km
Apogee: 1,013.3 km
Inclination: 82.9 °
Period: 104.5 minutes
Semi major axis: 7351 km
RCS: 4.3932 m2 (large)
Launch date: February 17, 1982
Source: Commonwealth of Independent States (former USSR) (CIS)
Launch site: PLESETSK MISSILE AND SPACE COMPLEX (PKMTR)

Note: This is a ROCKET BODY
Your satellite tracking list
Your tracking list is empty




NASA's NSSDC Master Catalog

Two Line Element Set (TLE):
1 13066U 82012B   26012.83532866  .00000013  00000-0 -24651-5 0  9999
2 13066  82.8948  36.6844 0044791 114.4653  66.1381 13.77376799206010
Source of the keplerian elements: AFSPC